星链-3915 (STARLINK-3915 )

导读

STARLINK-3915是美国太空探索技术公司(SpaceX)于2022年5月13日发射的星链(Starlink)低轨通信卫星,属于星链V1.0版本。它运行在近地点约355km、远地点约357km的近地轨道,轨道倾角43.001°,是SpaceX全球卫星互联网项目的组成部分,为全球偏远地区等区域提供高速低延迟互联网接入服务,助力缩小数字鸿沟。

基本信息
目录编号:
52581
目录名称:
STARLINK-3915
国际标识:
2022-051AX
轨道中心:
EARTH
卫星名称:
星链-3915
卫星全名:
星链-3915 (STARLINK-3915 )
卫星状态:
在轨 (已飞行1575 天)
发射日期:
2022-05-13 UTC
国别 :
美国 (US)
星等 :
--
轨道信息
数据来源 国际轨道数据
星历时间: 2026-09-04T09:36:43+0800
10小时前
查看轨道信息
半长轴: 6837.878km
偏心率: 0.000095
轨道倾角: 53.162°
近地点辐角 83.042°
升交点赤经 34.377°
平近点角 277.069°
近地点: 459.091km
远地点: 460.391km
周期: 93.787分钟
每日圈数: 15.353974
详细信息
固有亮度:
5
最大亮度:
2.5
卫星平台:
Starlink v1.5
覆盖范围:
全球
运营商:
太空探索技术公司
运营商所在国:
美国
制造商(研发单位):
太空探索技术公司
制造商所在国:
美国
使用方式:
暂无
卫星简介
星链(Starlink)计划是由太空探索技术公司(SpaceX)提出的一个巨型低轨卫星互联网星座项目,计划在2019年至2024年间在太空搭建由约1.2万颗卫星组成的“星链”网络,其中1584颗将部署在地球上空550千米处的近地轨道,并从2020年开始工作。该卫星仍在工作。
2D轨道图
3D轨道图
轨道高度分析图
轨道倾角分析图
轨道综合分析图
查看轨道综合分析图
交会数据列表
事件ID 空间交会对象 最接近时刻(TCA) 交会距离 交会风险概率(CRP) 交会风险指数(CRI) 操作
CDM_260905-100805-258105-917521
EXO-0 (59175)
2026-09-05T
10:08:18+0000
1.980 km
极远距离
2.124127E-6 低风险 0.42
CDM_260904-171205-258106-827322
2026-09-04T
17:12:22+0000
2.595 km
极远距离
1.469382E-6 低风险 0.38
CDM_260905-225005-258106-563122
2026-09-05T
22:50:44+0000
2.756 km
极远距离
1.329275E-6 低风险 0.37
CDM_260906-091005-258106-946522
2026-09-06T
09:10:09+0000
2.873 km
极远距离
1.244513E-6 低风险 0.37
CDM_260904-145205-258106-278122
2026-09-04T
14:52:05+0000
2.959 km
极远距离
1.220414E-6 低风险 0.37
CDM_260904-184605-258106-121421
2026-09-04T
18:46:55+0000
2.965 km
极远距离
1.217801E-6 低风险 0.37
CDM_260906-133305-258106-896221
2026-09-06T
13:33:44+0000
2.892 km
极远距离
1.151519E-6 低风险 0.36
CDM_260905-092105-258105-917521
EXO-0 (59175)
2026-09-05T
09:21:22+0000
2.794 km
极远距离
1.094727E-6 低风险 0.36
CDM_260830-150205-258106-627321
2026-08-30T
15:02:54+0000
2.780 km
极远距离
7.675586E-7 极低风险 0.33
CDM_260905-021405-258106-202121
2026-09-05T
02:14:53+0000
2.820 km
极远距离
5.566799E-7 极低风险 0.3